Hourly Data Report for September 04, 2017

All times are specified in Local Standard Time (LST). Add 1 hour to adjust for Daylight Saving Time where and when it is observed.

PETAWAWA AWOS 2
ONTARIO

45°57'00.000" N
77°19'00.000" W
130.10 m
6106396
71625
YWA

Download Data

Hourly Data (September 2017)
Hourly Data Report for September 4, 2017
Temp Definition
°C
Dew Point Temp Definition
°C
Rel Hum Definition
%
Wind Dir Definition
10's deg

Wind Spd Definition
km/h
Visibility Definition
km
Stn Press Definition
kPa
Hmdx Definition


Wind Chill Definition


Weather Definition


TIME
00:00 10.9 10.9 100   0 14.5 99.23     LegendNANA
01:00 11.5 11.2 98 14 4 14.5 99.20     LegendNANA
02:00 11.0 10.8 99   0 14.5 99.18     LegendNANA
03:00 11.7 11.6 99 15 4 14.5 99.13     LegendNANA
04:00 11.8 11.7 99   0 14.5 99.05     LegendNANA
05:00 12.8 12.6 99 12 7 14.5 99.00     LegendNANA
06:00 13.6 13.4 99 12 7 14.5 99.00     Rain
07:00 13.8 13.4 97 13 11 14.5 98.94     Rain
08:00 14.0 13.6 97 13 19 14.5 98.78     LegendNANA
09:00 14.3 14.0 98 12 19 12.9 98.69     Rain
10:00 15.3 14.5 95 14 11 14.5 98.70     LegendNANA
11:00 16.1 15.2 94 13 9 9.7 98.62     Rain
12:00 16.6 15.9 96 13 7 8.0 98.61     Rain
13:00 16.6 15.9 96 17 4 6.4 98.61     Moderate Rain
14:00 17.0 16.2 95 35 4 6.4 98.60     Moderate Rain
15:00 17.1 16.2 94 22 6 6.4 98.60     Rain
16:00 16.8 16.4 98   0 12.9 98.46     Rain
17:00 16.6 16.2 98 18 7 4.0 98.52     Moderate Rain
18:00 16.7 16.2 97 15 11 11.3 98.36     LegendNANA
19:00 16.4 16.2 99   0 2.3 98.38     Moderate Rain
20:00 16.4 16.2 99 14 4 4.0 98.39     Moderate Rain
21:00
22:00 16.3 16.0 98 27 4 9.7 98.36     LegendNANA
23:00 16.1 15.4 96 31 19 11.3 98.45     LegendNANA

Notes on Data Quality.

Legend

  • E = Estimated
  • M = Missing
  • NA = Not Available
  • ‡ = Partner data that is not subject to review by the National Climate Archives
Date modified: